Tracking 30995 objects as of 5-Jul-2025
HD Live streaming from Space Station
objects crossing your sky now

STARLINK-32408

Track STARLINK-32408 now!
10-day predictions
STARLINK-32408 is classified as:


NORAD ID: 62054
Int'l Code: 2024-216Y
Perigee: 489.5 km
Apogee: 491.2 km
Inclination: 43.0 °
Period: 94.3 minutes
Semi major axis: 6861 km
RCS: Unknown
Launch date: November 21, 2024
Source: United States (US)
Launch site: AIR FORCE EASTERN TEST RANGE (AFETR)
Your satellite tracking list
Your tracking list is empty




NASA's NSSDC Master Catalog

Two Line Element Set (TLE):
1 62054U 24216Y   25186.50002315  .00067658  00000-0  24501-2 0  9996
2 62054  42.9996 212.3355 0001226 285.6893 341.1694 15.27521333 34918
Source of the keplerian elements: AFSPC